Orbital Elements at Epoch 2459200.5 (2020-Dec-17.0) TDB
Reference: JPL 18 (heliocentric ecliptic J2000)
Element | Value | Uncertainty (1-sigma) | Units |
e | .2124853318255921 | 4.2676e-08 | |
a | 2.289815684082875 | 8.4589e-09 | au |
q | 1.80326343863108 | 9.7669e-08 | au |
i | 6.718302806827536 | 4.88e-06 | deg |
node | 156.2851963160956 | 3.4681e-05 | deg |
peri | 181.3782080323499 | 3.6393e-05 | deg |
M | 201.8225110497878 | 1.1692e-05 | deg |
tp | 2459756.585270366922 (2022-Jun-26.08527037) | 4.2852e-05 | TDB |
period | 1265.608011991541 3.47 | 7.013e-06 1.92e-08 | d yr |
n | .28444826248651 | 1.5762e-09 | deg/d |
Q | 2.77636792953467 | 1.0256e-08 | au |
|
| | Orbit Determination Parameters
Additional Information
|